Flag for Poland Weather past 2 weeks in Legnica, Poland

Now
73 °F

Passing clouds.


Feels Like: 77 °F
Forecast: 54 / 75 °F
Wind: 6 mph from Southeast

Location: Wroclaw Ii

Current Time: Sep 17, 2014 at 6:27:43 PM

Latest Report: Sep 17, 2014 at 5:00 PM


Visibility: 19 mi

Pressure: 30.06 "Hg

Humidity: 51%

Dew point: 54 °F

Location of LegnicaLocation

Historic Weather in Legnica — Graph

°F

Legnica temperature yesterday

Maximum temperature yesterday: 74 °F (at 4:00 PM)
Minimum temperature yesterday: 56 °F (at 7:00 AM)
Average temperature yesterday: 66 °F

Past Weeks' High & Low Weather Summary

 TemperatureHumidityPressure
High82 °F (Sep 7, 5:00 PM)98% (Sep 13, 3:00 AM)30.25 "Hg (Sep 13, 3:00 AM)
Low53 °F (Sep 10, 5:00 AM)46% (Sep 7, 5:00 PM)29.90 "Hg (Sep 6, 6:00 PM)
Average64 °F80%30.06 "Hg
* Reported Sep 2 5:00 PM — Sep 17 5:00 PM, Legnica, Weather by CustomWeather, © 2014

Note: Actual official high and low records may vary slightly from our data, if they occured in-between our weather recording intervals... More about our weather records

Advertising

Legnica weather history for previous 24 hours

 ConditionsComfort  
Time TempWeatherWind HumidityBarometerVisibility
5:00 PM
Sep 17
73 °FPassing clouds.6 mph51%30.06 "Hg19 mi
4:00 PM74 °FPassing clouds.5 mph56%30.06 "Hg12 mi
3:00 PM73 °FPassing clouds.6 mph58%30.07 "Hg12 mi
2:00 PM71 °FPassing clouds.5 mph62%30.09 "Hg12 mi
1:00 PM70 °FPassing clouds.5 mph66%30.10 "Hg12 mi
12:00 PM67 °FPassing clouds.5 mph70%30.11 "Hg9 mi
11:00 AM65 °FPassing clouds.3 mph77%30.12 "Hg9 mi
10:00 AM62 °FPassing clouds.3 mph79%30.13 "Hg9 mi
9:00 AM58 °FPassing clouds.5 mph83%30.12 "Hg9 mi
8:00 AM56 °FPassing clouds.5 mph88%30.12 "Hg9 mi
7:00 AM53 °FPassing clouds.3 mph91%30.12 "Hg9 mi
6:00 AM53 °FPassing clouds.2 mph91%30.12 "Hg12 mi
5:00 AM54 °FClear.2 mph92%30.12 "Hg12 mi
4:00 AM56 °FClear.2 mph88%30.12 "Hg12 mi
3:00 AM56 °FPassing clouds.2 mph88%30.13 "Hg12 mi
2:00 AMN/APassing clouds.24 mphN/AN/A11 mi
1:00 AM58 °FPassing clouds.3 mph84%30.12 "Hg19 mi
12:00 AM59 °FPassing clouds.3 mph82%30.13 "Hg19 mi
11:00 PM
Sep 16
62 °FPassing clouds.31 mph76%30.12 "Hg13 mi
10:00 PM64 °FPassing clouds.3 mph71%30.11 "Hg19 mi
9:00 PM67 °FOvercast.5 mph65%30.11 "Hg25 mi
8:00 PM69 °FOvercast.3 mph62%30.10 "Hg25 mi
7:00 PM68 °FOvercast.5 mph63%30.10 "Hg25 mi
6:00 PM72 °FPartly sunny.5 mph56%30.09 "Hg25 mi
Weather by CustomWeather, © 2014

See weather overviewHow to use our weather pages